Oscoda, MI

12:05 AM EST on February 20, 2017 (GMT -0500)
Oscoda-Wurtsmith

Weather History for KOSC - March, 2014

Change the Weather History Date:

Wednesday, March 5, 2014

  Actual Average Record
Temperature  
Mean Temperature 4 °F -  
Max Temperature 17 °F 31 °F 48 °F (2004)
Min Temperature -9 °F 16 °F -9 °F (2014)
Degree Days  
Heating Degree Days 60    
Moisture  
Dew Point 4 °F    
Average Humidity 81    
Maximum Humidity 91    
Minimum Humidity 70    
Precipitation  
Precipitation 0.00 in - - ()
Sea Level Pressure  
Sea Level Pressure 30.45 in    
Wind  
Wind Speed 7 mph (North)    
Max Wind Speed 18 mph    
Max Gust Speed 23 mph    
Visibility 9 miles    
Events Snow    
Averages and records for this station are not official NWS values.
T = Trace of Precipitation, MM = Missing Value Source: NWS Daily Summary

Daily Weather History Graph

Daily Weather History Graph

Search for Another Location

Airport or City:

Trip Planner

Search our weather history database for the weather conditions in past years. The results will help you decide how hot, cold, wet, or windy it might be!

Date:

Astronomy

Mar. 05, 2014 Rise Set
Actual Time 7:03 AM EST 6:26 PM EST
Civil Twilight 6:34 AM EST 6:55 PM EST
Nautical Twilight 6:01 AM EST 7:29 PM EST
Astronomical Twilight 5:27 AM EST 8:03 PM EST
Moon 9:17 AM EST (3/5) 11:47 PM EST (3/5)
Length of Visible Light 12h 21m
Length of Day
11h 22m
Waxing Crescent, 23% of the Moon is Illuminated
Mar 5
Waxing Crescent
Mar 8
First Quarter
Mar 16
Full
Mar 23
Last Quarter
Mar 30
New

Hourly Weather History & Observations

Time (EST) Temp. Windchill Dew Point Humidity Pressure Visibility Wind Dir Wind Speed Gust Speed Precip Events Conditions
12:14 AM 13.6 °F 6.0 °F 11.5 °F 91% 30.26 in 10.0 mi NNW 4.6 mph - N/A   Overcast
12:34 AM 11.7 °F 2.3 °F 9.3 °F 90% 30.26 in 10.0 mi NW 5.8 mph - N/A   Mostly Cloudy
12:54 AM 9.7 °F -0.1 °F 7.5 °F 91% 30.26 in 10.0 mi NW 5.8 mph - N/A   Mostly Cloudy
1:14 AM 8.8 °F -1.1 °F 6.4 °F 90% 30.26 in 10.0 mi NW 5.8 mph - N/A   Scattered Clouds
1:34 AM 10.4 °F 2.2 °F 8.1 °F 90% 30.27 in 10.0 mi NW 4.6 mph - N/A   Mostly Cloudy
1:54 AM 10.8 °F 1.2 °F 7.7 °F 87% 30.28 in 10.0 mi WNW 5.8 mph - N/A   Overcast
2:14 AM 10.4 °F 2.2 °F 7.3 °F 87% 30.28 in 10.0 mi NW 4.6 mph - N/A   Overcast
2:33 AM 9.5 °F 3.0 °F 6.4 °F 87% 30.28 in 10.0 mi NW 3.5 mph - N/A   Overcast
2:54 AM 8.4 °F -1.6 °F 5.0 °F 86% 30.29 in 10.0 mi NNW 5.8 mph - N/A   Overcast
3:14 AM 8.1 °F -3.2 °F 4.8 °F 87% 30.29 in 10.0 mi NNW 6.9 mph - N/A   Overcast
3:33 AM 9.3 °F -1.7 °F 6.3 °F 87% 30.29 in 10.0 mi NNW 6.9 mph - N/A   Overcast
3:54 AM 10.4 °F -0.4 °F 7.0 °F 86% 30.29 in 10.0 mi NNW 6.9 mph - N/A Snow Light Snow
4:14 AM 9.5 °F -1.5 °F 6.3 °F 87% 30.29 in 10.0 mi NNW 6.9 mph - N/A Snow Light Snow
4:33 AM 7.0 °F -3.3 °F 3.7 °F 87% 30.30 in 7.0 mi NW 5.8 mph - N/A   Overcast
4:54 AM 7.2 °F -1.5 °F 3.9 °F 87% 30.31 in 10.0 mi NW 4.6 mph - N/A   Overcast
5:14 AM 6.3 °F -0.7 °F 3.4 °F 88% 30.32 in 10.0 mi NNW 3.5 mph - N/A   Mostly Cloudy
5:33 AM 3.9 °F -5.3 °F 0.9 °F 87% 30.33 in 10.0 mi NNW 4.6 mph - N/A   Scattered Clouds
5:54 AM 4.6 °F -2.5 °F 1.9 °F 89% 30.34 in 10.0 mi NNW 3.5 mph - N/A   Clear
6:14 AM 3.2 °F - 0.7 °F 89% 30.35 in 10.0 mi Calm Calm - N/A   Clear
6:33 AM -1.7 °F - -5.1 °F 85% 30.36 in 10.0 mi Calm Calm - N/A   Clear
6:54 AM 0.7 °F - -2.0 °F 88% 30.36 in 10.0 mi Calm Calm - N/A   Clear
7:14 AM 0.3 °F -7.5 °F -2.6 °F 88% 30.36 in 5.0 mi NNW 3.5 mph - N/A   Clear
7:33 AM 2.8 °F -11.7 °F -0.4 °F 86% 30.37 in 10.0 mi NNW 9.2 mph - N/A   Clear
7:54 AM 5.0 °F -4.1 °F 1.8 °F 86% 30.38 in 10.0 mi NNW 4.6 mph - N/A   Clear
8:14 AM 6.6 °F -6.1 °F 3.6 °F 87% 30.39 in 10.0 mi NNW 8.1 mph - N/A   Clear
8:34 AM 8.6 °F -3.7 °F 5.4 °F 87% 30.41 in 10.0 mi NNW 8.1 mph - N/A   Clear
8:54 AM 9.5 °F -2.6 °F 5.9 °F 85% 30.41 in 10.0 mi NNW 8.1 mph - N/A   Clear
9:14 AM 10.9 °F -1.8 °F 6.8 °F 83% 30.42 in 7.0 mi North 9.2 mph - N/A   Clear
9:34 AM 11.7 °F -2.5 °F 6.6 °F 80% 30.43 in 10.0 mi North 11.5 mph - N/A   Scattered Clouds
9:54 AM 12.6 °F 1.1 °F 6.8 °F 78% 30.44 in 10.0 mi North 8.1 mph - N/A   Clear
10:14 AM 13.8 °F 1.8 °F 7.3 °F 75% 30.45 in 10.0 mi North 9.2 mph - N/A   Clear
10:34 AM 15.6 °F 4.9 °F 8.8 °F 74% 30.46 in 10.0 mi North 8.1 mph - N/A   Mostly Cloudy
10:54 AM 17.8 °F 1.9 °F 10.9 °F 75% 30.46 in 3.0 mi NNE 18.4 mph 23.0 mph N/A Snow Light Snow
11:14 AM 17.6 °F 3.2 °F 10.9 °F 75% 30.47 in 0.5 mi NE 15.0 mph - N/A Snow Light Snow
11:34 AM 16.7 °F 2.0 °F 10.4 °F 76% 30.48 in 2.0 mi NE 15.0 mph 19.6 mph N/A Snow Light Snow
11:54 AM 16.5 °F 0.8 °F 10.0 °F 76% 30.48 in 3.0 mi NE 17.3 mph - N/A Snow Light Snow
12:14 PM 16.7 °F 1.5 °F 9.5 °F 73% 30.49 in 5.0 mi ENE 16.1 mph - N/A Snow Light Snow
12:34 PM 16.3 °F 2.7 °F 8.8 °F 72% 30.50 in 5.0 mi NE 12.7 mph - N/A Snow Light Snow
12:54 PM 16.2 °F 1.3 °F 9.5 °F 75% 30.51 in 4.0 mi NE 15.0 mph - N/A Snow Light Snow
1:14 PM 16.7 °F 4.5 °F 9.7 °F 74% 30.51 in 5.0 mi NE 10.4 mph - N/A Snow Light Snow
1:34 PM 16.7 °F 3.8 °F 9.3 °F 73% 30.51 in 7.0 mi NE 11.5 mph - N/A Snow Light Snow
1:54 PM 16.3 °F 2.7 °F 8.8 °F 72% 30.51 in 5.0 mi NE 12.7 mph - N/A Snow Light Snow
2:14 PM 16.5 °F 4.3 °F 8.6 °F 71% 30.51 in 7.0 mi NE 10.4 mph - N/A Snow Light Snow
2:34 PM 17.2 °F 5.2 °F 9.7 °F 72% 30.51 in 10.0 mi NNE 10.4 mph - N/A   Mostly Cloudy
2:54 PM 17.2 °F 5.2 °F 9.9 °F 73% 30.52 in 10.0 mi NE 10.4 mph - N/A   Mostly Cloudy
3:14 PM 16.5 °F 2.4 °F 8.8 °F 72% 30.52 in 10.0 mi NE 13.8 mph - N/A   Scattered Clouds
3:34 PM 16.3 °F 1.6 °F 8.8 °F 72% 30.52 in 10.0 mi NE 15.0 mph - N/A   Scattered Clouds
3:53 PM 16.2 °F 1.3 °F 8.1 °F 70% 30.52 in 10.0 mi NNE 15.0 mph - N/A   Clear
4:14 PM 15.8 °F 1.4 °F 8.1 °F 72% 30.53 in 10.0 mi NE 13.8 mph - N/A   Clear
4:34 PM 15.6 °F 1.8 °F 8.6 °F 74% 30.53 in 10.0 mi NNE 12.7 mph - N/A   Clear
4:53 PM 15.6 °F 1.8 °F 9.0 °F 75% 30.54 in 10.0 mi NE 12.7 mph - N/A   Scattered Clouds
5:14 PM 15.1 °F 2.5 °F 8.6 °F 76% 30.55 in 10.0 mi NE 10.4 mph - N/A   Mostly Cloudy
5:34 PM 14.2 °F 3.1 °F 8.2 °F 77% 30.55 in 10.0 mi NE 8.1 mph - N/A   Mostly Cloudy
5:53 PM 13.1 °F 0.9 °F 7.2 °F 77% 30.56 in 10.0 mi NE 9.2 mph - N/A   Scattered Clouds
6:14 PM 11.5 °F 0.9 °F 5.5 °F 77% 30.56 in 10.0 mi NE 6.9 mph - N/A   Scattered Clouds
6:34 PM 10.2 °F 0.6 °F 4.6 °F 78% 30.56 in 10.0 mi NE 5.8 mph - N/A   Scattered Clouds
6:53 PM 9.3 °F 1.0 °F 4.6 °F 81% 30.56 in 10.0 mi NE 4.6 mph - N/A   Scattered Clouds
7:14 PM 9.3 °F -0.5 °F 4.5 °F 81% 30.57 in 10.0 mi NE 5.8 mph - N/A   Clear
7:34 PM 8.8 °F -1.1 °F 3.9 °F 81% 30.57 in 10.0 mi NE 5.8 mph - N/A   Clear
7:53 PM 4.8 °F -2.3 °F 0.7 °F 83% 30.57 in 10.0 mi NNE 3.5 mph - N/A   Clear
8:14 PM 1.4 °F -11.3 °F -2.6 °F 83% 30.57 in 10.0 mi NNE 6.9 mph - N/A   Clear
8:34 PM 3.6 °F - 0.5 °F 87% 30.57 in 10.0 mi Calm Calm - N/A   Clear
8:53 PM 1.0 °F -6.7 °F -3.1 °F 83% 30.57 in 10.0 mi NNE 3.5 mph - N/A   Clear
9:14 PM 1.8 °F - -1.5 °F 86% 30.57 in 10.0 mi Calm Calm - N/A   Clear
9:34 PM -3.1 °F - -6.5 °F 85% 30.57 in 10.0 mi Calm Calm - N/A   Clear
9:53 PM -3.8 °F - -7.6 °F 84% 30.58 in 10.0 mi Calm Calm - N/A   Clear
10:14 PM -6.3 °F - -10.3 °F 83% 30.58 in 10.0 mi Calm Calm - N/A   Clear
10:34 PM -8.3 °F - -13.0 °F 80% 30.58 in 10.0 mi Calm Calm - N/A   Clear
10:54 PM -7.6 °F -16.5 °F -12.3 °F 80% 30.57 in 10.0 mi North 3.5 mph - N/A   Clear
11:14 PM -4.9 °F - -8.1 °F 86% 30.56 in 10.0 mi Calm Calm - N/A   Clear
11:34 PM -7.1 °F - -11.2 °F 82% 30.56 in 10.0 mi Calm Calm - N/A   Clear
11:54 PM -9.8 °F -21.3 °F -15.0 °F 78% 30.56 in 10.0 mi NW 4.6 mph - N/A   Clear